DAMPE

Last updated on Mon Sep 21 2026 00:03:33 GMT+0000 (Coordinated Universal Time)

1 41173U 15078A 26263.59909685 .00000795 00000+0 29086-4 0 9996 2 41173 97.4607 269.5697 0013701 95.6233 264.6571 15.30987209599148
UTC large
Height (km)
Speed (km/s)
/
Latitude / Longitude
Inclination (degrees)
Orbital Period (minutes)
Azimuth
Elevation
Range (km)
Doppler Factor

Next 0 passes for location: London (51.5072 / 0.1276)

No passes found over London.
DAMPE